Year,Month,Day,Hour,Minute,Value (Times are PST for windgust in km/hr)
2020,01,14,00,00,25.70
2020,01,14,00,01,30.60
2020,01,14,00,02,22.50
2020,01,14,00,03,14.50
2020,01,14,00,04,6.40
2020,01,14,00,05,20.90
2020,01,14,00,06,25.70
2020,01,14,00,07,11.30
2020,01,14,00,08,20.90
2020,01,14,00,09,17.70
2020,01,14,00,10,20.90
2020,01,14,00,11,20.90
2020,01,14,00,12,19.30
2020,01,14,00,13,16.10
2020,01,14,00,14,11.30
2020,01,14,00,15,16.10
2020,01,14,00,16,9.60
2020,01,14,00,17,11.30
2020,01,14,00,18,11.30
2020,01,14,00,19,6.40
2020,01,14,00,20,20.90
2020,01,14,00,21,11.30
2020,01,14,00,22,4.80
2020,01,14,00,23,16.10
2020,01,14,00,24,14.50
2020,01,14,00,25,19.30
2020,01,14,00,26,27.40
2020,01,14,00,27,20.90
2020,01,14,00,28,16.10
2020,01,14,00,29,4.80
2020,01,14,00,30,8.10
2020,01,14,00,31,8.10
2020,01,14,00,32,9.60
2020,01,14,00,33,14.50
2020,01,14,00,34,17.70
2020,01,14,00,35,8.10
2020,01,14,00,36,16.10
2020,01,14,00,37,19.30
2020,01,14,00,38,16.10
2020,01,14,00,39,8.10
2020,01,14,00,40,6.40
2020,01,14,00,41,24.20
2020,01,14,00,42,12.90
2020,01,14,00,43,11.30
2020,01,14,00,44,19.30
2020,01,14,00,45,12.90
2020,01,14,00,46,14.50
2020,01,14,00,47,11.30
2020,01,14,00,48,11.30
2020,01,14,00,49,11.30
2020,01,14,00,50,17.70
2020,01,14,00,51,16.10
2020,01,14,00,52,11.30
2020,01,14,00,53,8.10
2020,01,14,00,54,19.30
2020,01,14,00,55,17.70
2020,01,14,00,56,16.10
2020,01,14,00,57,9.60
2020,01,14,00,58,19.30
2020,01,14,00,59,24.20
2020,01,14,01,00,17.70
2020,01,14,01,01,17.70
2020,01,14,01,02,16.10
2020,01,14,01,03,22.50
2020,01,14,01,04,19.30
2020,01,14,01,05,17.70
2020,01,14,01,06,17.70
2020,01,14,01,07,16.10
2020,01,14,01,08,27.40
2020,01,14,01,09,19.30
2020,01,14,01,10,20.90
2020,01,14,01,11,11.30
2020,01,14,01,12,11.30
2020,01,14,01,13,6.40
2020,01,14,01,14,11.30
2020,01,14,01,15,8.10
2020,01,14,01,16,9.60
2020,01,14,01,17,6.40
2020,01,14,01,18,8.10
2020,01,14,01,19,4.80
2020,01,14,01,20,9.60
2020,01,14,01,21,11.30
2020,01,14,01,22,8.10
2020,01,14,01,23,8.10
2020,01,14,01,24,25.70
2020,01,14,01,25,29.00
2020,01,14,01,26,17.70
2020,01,14,01,27,16.10
2020,01,14,01,28,17.70
2020,01,14,01,29,6.40
2020,01,14,01,30,11.30
2020,01,14,01,31,11.30
2020,01,14,01,32,16.10
2020,01,14,01,33,17.70
2020,01,14,01,34,14.50
2020,01,14,01,35,11.30
2020,01,14,01,36,9.60
2020,01,14,01,37,4.80
2020,01,14,01,38,9.60
2020,01,14,01,39,9.60
2020,01,14,01,40,16.10
2020,01,14,01,41,14.50
2020,01,14,01,42,8.10
2020,01,14,01,43,6.40
2020,01,14,01,44,9.60
2020,01,14,01,45,19.30
2020,01,14,01,46,20.90
2020,01,14,01,47,14.50
2020,01,14,01,48,16.10
2020,01,14,01,49,11.30
2020,01,14,01,50,16.10
2020,01,14,01,51,9.60
2020,01,14,01,52,16.10
2020,01,14,01,53,8.10
2020,01,14,01,54,9.60
2020,01,14,01,55,14.50
2020,01,14,01,56,14.50
2020,01,14,01,57,22.50
2020,01,14,01,58,17.70
2020,01,14,01,59,19.30
2020,01,14,02,00,16.10
2020,01,14,02,01,24.20
2020,01,14,02,02,22.50
2020,01,14,02,03,19.30
2020,01,14,02,04,17.70
2020,01,14,02,05,14.50
2020,01,14,02,06,16.10
2020,01,14,02,07,20.90
2020,01,14,02,08,22.50
2020,01,14,02,09,14.50
2020,01,14,02,10,11.30
2020,01,14,02,11,11.30
2020,01,14,02,12,8.10
2020,01,14,02,13,20.90
2020,01,14,02,14,17.70
2020,01,14,02,15,11.30
2020,01,14,02,16,11.30
2020,01,14,02,17,11.30
2020,01,14,02,18,9.60
2020,01,14,02,19,11.30
2020,01,14,02,20,3.20
2020,01,14,02,21,8.10
2020,01,14,02,22,20.90
2020,01,14,02,23,14.50
2020,01,14,02,24,16.10
2020,01,14,02,25,11.30
2020,01,14,02,26,20.90
2020,01,14,02,27,19.30
2020,01,14,02,28,16.10
2020,01,14,02,29,8.10
2020,01,14,02,30,17.70
2020,01,14,02,31,11.30
2020,01,14,02,32,9.60
2020,01,14,02,33,17.70
2020,01,14,02,34,20.90
2020,01,14,02,35,20.90
2020,01,14,02,36,16.10
2020,01,14,02,37,20.90
2020,01,14,02,38,16.10
2020,01,14,02,39,19.30
2020,01,14,02,40,20.90
2020,01,14,02,41,14.50
2020,01,14,02,42,9.60
2020,01,14,02,43,12.90
2020,01,14,02,44,19.30
2020,01,14,02,45,16.10
2020,01,14,02,46,11.30
2020,01,14,02,47,8.10
2020,01,14,02,48,6.40
2020,01,14,02,49,11.30
2020,01,14,02,50,16.10
2020,01,14,02,51,11.30
2020,01,14,02,52,14.50
2020,01,14,02,53,20.90
2020,01,14,02,54,22.50
2020,01,14,02,55,19.30
2020,01,14,02,56,9.60
2020,01,14,02,57,11.30
2020,01,14,02,58,11.30
2020,01,14,02,59,14.50
2020,01,14,03,00,22.50
2020,01,14,03,01,8.10
2020,01,14,03,02,22.50
2020,01,14,03,03,11.30
2020,01,14,03,04,8.10
2020,01,14,03,05,16.10
2020,01,14,03,06,19.30
2020,01,14,03,07,20.90
2020,01,14,03,08,20.90
2020,01,14,03,09,14.50
2020,01,14,03,10,17.70
2020,01,14,03,11,11.30
2020,01,14,03,12,8.10
2020,01,14,03,13,8.10
2020,01,14,03,14,8.10
2020,01,14,03,15,9.60
2020,01,14,03,16,17.70
2020,01,14,03,17,20.90
2020,01,14,03,18,14.50
2020,01,14,03,19,17.70
2020,01,14,03,20,22.50
2020,01,14,03,21,9.60
2020,01,14,03,22,16.10
2020,01,14,03,23,20.90
2020,01,14,03,24,14.50
2020,01,14,03,25,17.70
2020,01,14,03,26,16.10
2020,01,14,03,27,6.40
2020,01,14,03,28,11.30
2020,01,14,03,29,8.10
2020,01,14,03,30,6.40
2020,01,14,03,31,6.40
2020,01,14,03,32,6.40
2020,01,14,03,33,8.10
2020,01,14,03,34,19.30
2020,01,14,03,35,9.60
2020,01,14,03,36,16.10
2020,01,14,03,37,9.60
2020,01,14,03,38,12.90
2020,01,14,03,39,8.10
2020,01,14,03,40,6.40
2020,01,14,03,41,11.30
2020,01,14,03,42,17.70
2020,01,14,03,43,16.10
2020,01,14,03,44,9.60
2020,01,14,03,45,22.50
2020,01,14,03,46,22.50
2020,01,14,03,47,14.50
2020,01,14,03,48,4.80
2020,01,14,03,49,11.30
2020,01,14,03,50,16.10
2020,01,14,03,51,9.60
2020,01,14,03,52,14.50
2020,01,14,03,53,25.70
2020,01,14,03,54,17.70
2020,01,14,03,55,9.60
2020,01,14,03,56,25.70
2020,01,14,03,57,16.10
2020,01,14,03,58,16.10
2020,01,14,03,59,11.30
2020,01,14,04,00,11.30
2020,01,14,04,01,6.40
2020,01,14,04,02,4.80
2020,01,14,04,03,1.60
2020,01,14,04,04,12.90
2020,01,14,04,05,9.60
2020,01,14,04,06,24.20
2020,01,14,04,07,17.70
2020,01,14,04,08,9.60
2020,01,14,04,09,9.60
2020,01,14,04,10,16.10
2020,01,14,04,11,9.60
2020,01,14,04,12,17.70
2020,01,14,04,13,17.70
2020,01,14,04,14,11.30
2020,01,14,04,15,8.10
2020,01,14,04,16,6.40
2020,01,14,04,17,9.60
2020,01,14,04,18,19.30
2020,01,14,04,19,22.50
2020,01,14,04,20,25.70
2020,01,14,04,21,17.70
2020,01,14,04,22,22.50
2020,01,14,04,23,20.90
2020,01,14,04,24,20.90
2020,01,14,04,25,25.70
2020,01,14,04,26,19.30
2020,01,14,04,27,20.90
2020,01,14,04,28,20.90
2020,01,14,04,29,22.50
2020,01,14,04,30,25.70
2020,01,14,04,31,9.60
2020,01,14,04,32,12.90
2020,01,14,04,33,17.70
2020,01,14,04,34,20.90
2020,01,14,04,35,16.10
2020,01,14,04,36,14.50
2020,01,14,04,37,9.60
2020,01,14,04,38,11.30
2020,01,14,04,39,9.60
2020,01,14,04,40,16.10
2020,01,14,04,41,12.90
2020,01,14,04,42,14.50
2020,01,14,04,43,17.70
2020,01,14,04,44,20.90
2020,01,14,04,45,17.70
2020,01,14,04,46,11.30
2020,01,14,04,47,19.30
2020,01,14,04,48,20.90
2020,01,14,04,49,19.30
2020,01,14,04,50,20.90
2020,01,14,04,51,16.10
2020,01,14,04,52,16.10
2020,01,14,04,53,16.10
2020,01,14,04,54,22.50
2020,01,14,04,55,24.20
2020,01,14,04,56,11.30
2020,01,14,04,57,14.50
2020,01,14,04,58,12.90
2020,01,14,04,59,11.30
2020,01,14,05,00,8.10
2020,01,14,05,01,4.80
2020,01,14,05,03,17.70
2020,01,14,05,04,16.10
2020,01,14,05,05,9.60
2020,01,14,05,06,11.30
2020,01,14,05,07,24.20
2020,01,14,05,08,11.30
2020,01,14,05,09,22.50
2020,01,14,05,10,16.10
2020,01,14,05,11,16.10
2020,01,14,05,12,6.40
2020,01,14,05,13,22.50
2020,01,14,05,14,14.50
2020,01,14,05,15,20.90
2020,01,14,05,16,17.70
2020,01,14,05,17,16.10
2020,01,14,05,18,4.80
2020,01,14,05,19,19.30
2020,01,14,05,20,17.70
2020,01,14,05,21,1.60
2020,01,14,05,22,11.30
2020,01,14,05,23,16.10
2020,01,14,05,24,9.60
2020,01,14,05,25,11.30
2020,01,14,05,26,16.10
2020,01,14,05,27,6.40
2020,01,14,05,28,11.30
2020,01,14,05,29,9.60
2020,01,14,05,30,16.10
2020,01,14,05,31,8.10
2020,01,14,05,32,6.40
2020,01,14,05,33,19.30
2020,01,14,05,34,17.70
2020,01,14,05,35,20.90
2020,01,14,05,36,9.60
2020,01,14,05,37,11.30
2020,01,14,05,38,11.30
2020,01,14,05,39,1.60
2020,01,14,05,40,11.30
2020,01,14,05,41,4.80
2020,01,14,05,42,3.20
2020,01,14,05,43,9.60
2020,01,14,05,44,8.10
2020,01,14,05,45,6.40
2020,01,14,05,46,14.50
2020,01,14,05,47,11.30
2020,01,14,05,48,17.70
2020,01,14,05,49,17.70
2020,01,14,05,50,20.90
2020,01,14,05,51,20.90
2020,01,14,05,52,24.20
2020,01,14,05,53,24.20
2020,01,14,05,54,22.50
2020,01,14,05,55,17.70
2020,01,14,05,56,14.50
2020,01,14,05,57,17.70
2020,01,14,05,58,16.10
2020,01,14,05,59,9.60
2020,01,14,06,00,14.50
2020,01,14,06,01,24.20
2020,01,14,06,02,24.20
2020,01,14,06,03,20.90
2020,01,14,06,04,20.90
2020,01,14,06,05,19.30
2020,01,14,06,06,24.20
2020,01,14,06,07,20.90
2020,01,14,06,08,16.10
2020,01,14,06,09,17.70
2020,01,14,06,10,8.10
2020,01,14,06,11,17.70
2020,01,14,06,12,8.10
2020,01,14,06,13,9.60
2020,01,14,06,14,16.10
2020,01,14,06,15,12.90
2020,01,14,06,16,16.10
2020,01,14,06,17,16.10
2020,01,14,06,18,25.70
2020,01,14,06,19,22.50
2020,01,14,06,20,22.50
2020,01,14,06,21,11.30
2020,01,14,06,22,16.10
2020,01,14,06,23,17.70
2020,01,14,06,24,19.30
2020,01,14,06,25,24.20
2020,01,14,06,26,14.50
2020,01,14,06,27,14.50
2020,01,14,06,28,11.30
2020,01,14,06,29,9.60
2020,01,14,06,30,11.30
2020,01,14,06,31,4.80
2020,01,14,06,32,6.40
2020,01,14,06,33,8.10
2020,01,14,06,34,6.40
2020,01,14,06,35,11.30
2020,01,14,06,36,22.50
2020,01,14,06,37,24.20
2020,01,14,06,38,25.70
2020,01,14,06,39,24.20
2020,01,14,06,40,6.40
2020,01,14,06,41,16.10
2020,01,14,06,42,22.50
2020,01,14,06,43,8.10
2020,01,14,06,44,19.30
2020,01,14,06,45,16.10
2020,01,14,06,46,8.10
2020,01,14,06,47,17.70
2020,01,14,06,48,14.50
2020,01,14,06,49,14.50
2020,01,14,06,50,22.50
2020,01,14,06,51,8.10
2020,01,14,06,52,16.10
2020,01,14,06,53,20.90
2020,01,14,06,54,16.10
2020,01,14,06,55,14.50
2020,01,14,06,56,19.30
2020,01,14,06,57,20.90
2020,01,14,06,58,22.50
2020,01,14,06,59,17.70
2020,01,14,07,00,17.70
2020,01,14,07,01,16.10
2020,01,14,07,02,20.90
2020,01,14,07,03,17.70
2020,01,14,07,04,20.90
2020,01,14,07,05,20.90
2020,01,14,07,06,19.30
2020,01,14,07,07,17.70
2020,01,14,07,08,22.50
2020,01,14,07,09,22.50
2020,01,14,07,10,22.50
2020,01,14,07,11,9.60
2020,01,14,07,12,8.10
2020,01,14,07,13,6.40
2020,01,14,07,14,16.10
2020,01,14,07,15,16.10
2020,01,14,07,16,20.90
2020,01,14,07,17,19.30
2020,01,14,07,18,22.50
2020,01,14,07,19,20.90
2020,01,14,07,20,8.10
2020,01,14,07,21,6.40
2020,01,14,07,22,3.20
2020,01,14,09,13,16.10
2020,01,14,09,14,16.10
2020,01,14,09,15,9.60
2020,01,14,09,16,16.10
2020,01,14,09,17,14.50
2020,01,14,09,18,16.10
2020,01,14,09,19,9.60
2020,01,14,09,20,6.40
2020,01,14,09,21,6.40
2020,01,14,09,22,8.10
2020,01,14,09,23,9.60
2020,01,14,09,24,16.10
2020,01,14,09,25,9.60
2020,01,14,09,26,9.60
2020,01,14,09,27,8.10
2020,01,14,09,28,9.60
2020,01,14,09,29,4.80
2020,01,14,09,30,3.20
2020,01,14,09,31,9.60
2020,01,14,09,32,9.60
2020,01,14,09,33,9.60
2020,01,14,09,34,9.60
2020,01,14,09,35,6.40
2020,01,14,09,36,11.30
2020,01,14,09,37,11.30
2020,01,14,09,38,11.30
2020,01,14,09,39,12.90
2020,01,14,09,40,17.70
2020,01,14,09,41,16.10
2020,01,14,09,42,17.70
2020,01,14,09,43,12.90
2020,01,14,09,44,12.90
2020,01,14,09,45,11.30
2020,01,14,09,46,14.50
2020,01,14,09,47,14.50
2020,01,14,09,48,11.30
2020,01,14,09,49,17.70
2020,01,14,09,50,11.30
2020,01,14,09,51,8.10
2020,01,14,09,52,9.60
2020,01,14,09,53,8.10
2020,01,14,09,54,9.60
2020,01,14,09,55,19.30
2020,01,14,09,56,9.60
2020,01,14,09,57,4.80
2020,01,14,09,58,8.10
2020,01,14,09,59,6.40
2020,01,14,10,00,3.20
2020,01,14,10,01,9.60
2020,01,14,10,02,9.60
2020,01,14,10,03,11.30
2020,01,14,10,04,8.10
2020,01,14,10,05,9.60
2020,01,14,10,06,16.10
2020,01,14,10,07,11.30
2020,01,14,10,08,17.70
2020,01,14,10,09,16.10
2020,01,14,10,10,12.90
2020,01,14,10,11,11.30
2020,01,14,10,12,17.70
2020,01,14,10,13,19.30
2020,01,14,10,14,14.50
2020,01,14,10,15,11.30
2020,01,14,10,16,11.30
2020,01,14,10,17,12.90
2020,01,14,10,18,19.30
2020,01,14,10,19,11.30
2020,01,14,10,20,9.60
2020,01,14,10,21,14.50
2020,01,14,10,22,8.10
2020,01,14,10,23,8.10
2020,01,14,10,24,9.60
2020,01,14,10,25,8.10
2020,01,14,10,26,1.60
2020,01,14,10,27,14.50
2020,01,14,10,28,9.60
2020,01,14,10,29,11.30
2020,01,14,10,30,11.30
2020,01,14,10,31,6.40
2020,01,14,10,32,9.60
2020,01,14,10,33,9.60
2020,01,14,10,34,9.60
2020,01,14,10,35,3.20
2020,01,14,10,36,16.10
2020,01,14,10,37,11.30
2020,01,14,10,38,11.30
2020,01,14,10,39,17.70
2020,01,14,10,40,14.50
2020,01,14,10,41,16.10
2020,01,14,10,42,16.10
2020,01,14,10,43,11.30
2020,01,14,10,44,11.30
2020,01,14,10,45,17.70
2020,01,14,10,46,19.30
2020,01,14,10,47,16.10
2020,01,14,10,48,16.10
2020,01,14,10,49,11.30
2020,01,14,10,50,9.60
2020,01,14,10,51,9.60
2020,01,14,10,52,3.20
2020,01,14,10,53,6.40
2020,01,14,10,54,6.40
2020,01,14,10,55,8.10
2020,01,14,10,56,6.40
2020,01,14,10,57,3.20
2020,01,14,10,58,8.10
2020,01,14,10,59,11.30
2020,01,14,11,00,9.60
2020,01,14,11,01,8.10
2020,01,14,11,02,16.10
2020,01,14,11,03,8.10
2020,01,14,11,04,11.30
2020,01,14,11,05,9.60
2020,01,14,11,06,8.10
2020,01,14,11,07,8.10
2020,01,14,11,08,6.40
2020,01,14,11,09,4.80
2020,01,14,11,10,4.80
2020,01,14,11,11,8.10
2020,01,14,11,12,8.10
2020,01,14,11,13,8.10
2020,01,14,11,14,4.80
2020,01,14,11,15,9.60
2020,01,14,11,16,8.10
2020,01,14,11,17,9.60
2020,01,14,11,18,9.60
2020,01,14,11,19,4.80
2020,01,14,11,23,12.90
2020,01,14,11,24,14.50
2020,01,14,11,25,11.30
2020,01,14,11,26,11.30
2020,01,14,11,27,9.60
2020,01,14,11,28,6.40
2020,01,14,11,29,11.30
2020,01,14,11,30,9.60
2020,01,14,11,31,9.60
2020,01,14,11,32,9.60
2020,01,14,11,33,8.10
2020,01,14,11,34,8.10
2020,01,14,11,35,8.10
2020,01,14,11,36,8.10
2020,01,14,11,37,8.10
2020,01,14,11,38,1.60
2020,01,14,11,43,6.40
2020,01,14,11,44,6.40
2020,01,14,11,45,6.40
2020,01,14,11,46,6.40
2020,01,14,11,47,3.20
2020,01,14,11,48,4.80
2020,01,14,11,49,6.40
2020,01,14,11,50,3.20
2020,01,14,11,51,6.40
2020,01,14,11,52,6.40
2020,01,14,11,53,6.40
2020,01,14,11,54,3.20
2020,01,14,11,55,1.60
2020,01,14,11,56,4.80
2020,01,14,11,58,4.80
2020,01,14,12,00,4.80
2020,01,14,12,01,4.80
2020,01,14,12,06,4.80
2020,01,14,12,07,4.80
2020,01,14,12,08,3.20
2020,01,14,12,09,3.20
2020,01,14,12,10,4.80
2020,01,14,12,11,3.20
2020,01,14,12,12,4.80
2020,01,14,12,18,1.60
2020,01,14,12,19,8.10
2020,01,14,12,20,4.80
2020,01,14,12,21,6.40
2020,01,14,12,22,4.80
2020,01,14,12,23,4.80
2020,01,14,12,24,4.80
2020,01,14,12,25,4.80
2020,01,14,12,26,6.40
2020,01,14,12,27,6.40
2020,01,14,12,28,6.40
2020,01,14,12,29,6.40
2020,01,14,12,30,4.80
2020,01,14,12,31,3.20
2020,01,14,12,37,3.20
2020,01,14,12,53,4.80
2020,01,14,13,02,3.20
2020,01,14,13,18,1.60
2020,01,14,13,19,1.60
2020,01,14,13,53,3.20
2020,01,14,13,54,3.20
2020,01,14,13,59,1.60
2020,01,14,14,00,3.20
2020,01,14,14,01,3.20
2020,01,14,14,02,4.80
2020,01,14,14,03,4.80
2020,01,14,14,04,6.40
2020,01,14,14,05,4.80
2020,01,14,14,06,4.80
2020,01,14,14,07,3.20
2020,01,14,14,08,6.40
2020,01,14,14,09,6.40
2020,01,14,14,10,4.80
2020,01,14,14,11,4.80
2020,01,14,14,12,6.40
2020,01,14,14,13,4.80
2020,01,14,14,14,4.80
2020,01,14,14,15,4.80
2020,01,14,14,16,3.20
2020,01,14,14,17,3.20
2020,01,14,14,18,4.80
2020,01,14,14,19,3.20
2020,01,14,14,24,1.60
2020,01,14,14,25,4.80
2020,01,14,14,26,6.40
2020,01,14,14,27,6.40
2020,01,14,14,28,11.30
2020,01,14,14,29,8.10
2020,01,14,14,30,8.10
2020,01,14,14,31,4.80
2020,01,14,14,32,9.60
2020,01,14,14,33,9.60
2020,01,14,14,34,8.10
2020,01,14,14,35,9.60
2020,01,14,14,36,9.60
2020,01,14,14,37,9.60
2020,01,14,14,38,11.30
2020,01,14,14,39,14.50
2020,01,14,14,40,11.30
2020,01,14,14,41,11.30
2020,01,14,14,42,17.70
2020,01,14,14,43,16.10
2020,01,14,14,44,9.60
2020,01,14,14,45,16.10
2020,01,14,14,46,14.50
2020,01,14,14,47,9.60
2020,01,14,14,48,8.10
2020,01,14,14,49,14.50
2020,01,14,14,50,16.10
2020,01,14,14,51,14.50
2020,01,14,14,52,17.70
2020,01,14,14,53,17.70
2020,01,14,14,54,14.50
2020,01,14,14,55,17.70
2020,01,14,14,56,16.10
2020,01,14,14,57,17.70
2020,01,14,14,58,17.70
2020,01,14,14,59,11.30
2020,01,14,15,00,16.10
2020,01,14,15,01,11.30
2020,01,14,15,02,11.30
2020,01,14,15,03,8.10
2020,01,14,15,04,11.30
2020,01,14,15,05,8.10
2020,01,14,15,06,4.80
2020,01,14,15,07,19.30
2020,01,14,15,08,9.60
2020,01,14,15,09,9.60
2020,01,14,15,10,8.10
2020,01,14,15,11,9.60
2020,01,14,15,12,6.40
2020,01,14,15,13,11.30
2020,01,14,15,14,11.30
2020,01,14,15,15,9.60
2020,01,14,15,16,9.60
2020,01,14,15,17,8.10
2020,01,14,15,18,16.10
2020,01,14,15,19,11.30
2020,01,14,15,20,16.10
2020,01,14,15,21,8.10
2020,01,14,15,22,11.30
2020,01,14,15,23,11.30
2020,01,14,15,24,8.10
2020,01,14,15,25,4.80
2020,01,14,15,26,11.30
2020,01,14,15,27,11.30
2020,01,14,15,28,11.30
2020,01,14,15,29,12.90
2020,01,14,15,30,9.60
2020,01,14,15,31,16.10
2020,01,14,15,32,14.50
2020,01,14,15,33,11.30
2020,01,14,15,34,8.10
2020,01,14,15,35,8.10
2020,01,14,15,36,16.10
2020,01,14,15,37,8.10
2020,01,14,15,38,11.30
2020,01,14,15,39,9.60
2020,01,14,15,40,11.30
2020,01,14,15,41,9.60
2020,01,14,15,42,11.30
2020,01,14,15,43,8.10
2020,01,14,15,44,11.30
2020,01,14,15,45,9.60
2020,01,14,15,46,8.10
2020,01,14,15,47,6.40
2020,01,14,15,48,4.80
2020,01,14,15,51,8.10
2020,01,14,15,52,8.10
2020,01,14,15,53,6.40
2020,01,14,15,54,6.40
2020,01,14,15,55,6.40
2020,01,14,16,01,4.80
2020,01,14,16,02,8.10
2020,01,14,16,03,8.10
2020,01,14,16,04,9.60
2020,01,14,16,05,11.30
2020,01,14,16,06,12.90
2020,01,14,16,07,8.10
2020,01,14,16,08,4.80
2020,01,14,16,09,4.80
2020,01,14,16,12,3.20
2020,01,14,16,13,8.10
2020,01,14,16,14,1.60
2020,01,14,16,18,3.20
2020,01,14,16,19,6.40
2020,01,14,16,20,4.80
2020,01,14,16,21,8.10
2020,01,14,16,22,3.20
2020,01,14,16,25,3.20
2020,01,14,16,26,6.40
2020,01,14,16,27,3.20
2020,01,14,16,29,6.40
2020,01,14,16,30,1.60
2020,01,14,16,31,3.20
2020,01,14,16,32,3.20
2020,01,14,16,33,6.40
2020,01,14,16,34,6.40
2020,01,14,16,35,3.20
2020,01,14,16,36,1.60
2020,01,14,16,41,3.20
2020,01,14,16,46,4.80
2020,01,14,16,47,3.20
2020,01,14,16,49,6.40
2020,01,14,16,50,6.40
2020,01,14,16,51,9.60
2020,01,14,16,52,9.60
2020,01,14,16,53,6.40
2020,01,14,16,54,4.80
2020,01,14,16,59,6.40
2020,01,14,17,00,6.40
2020,01,14,17,01,1.60
2020,01,14,17,03,9.60
2020,01,14,17,04,1.60
2020,01,14,17,41,1.60
2020,01,14,17,52,4.80
2020,01,14,17,53,1.60
2020,01,14,17,55,4.80
2020,01,14,17,56,3.20
2020,01,14,17,57,1.60
2020,01,14,18,03,4.80
2020,01,14,18,04,4.80
2020,01,14,18,05,1.60
2020,01,14,18,06,4.80
2020,01,14,18,07,4.80
2020,01,14,18,08,3.20
2020,01,14,18,11,4.80
2020,01,14,18,12,4.80
2020,01,14,18,13,4.80
2020,01,14,18,14,4.80
2020,01,14,18,15,4.80
2020,01,14,18,16,4.80
2020,01,14,18,17,4.80
2020,01,14,18,18,4.80
2020,01,14,18,19,4.80
2020,01,14,18,20,4.80
2020,01,14,18,30,1.60
2020,01,14,18,31,4.80
2020,01,14,18,35,1.60
2020,01,14,18,45,3.20
2020,01,14,18,46,4.80
2020,01,14,18,47,3.20
2020,01,14,18,48,4.80
2020,01,14,18,49,3.20
2020,01,14,18,50,4.80
2020,01,14,18,51,3.20
2020,01,14,18,52,4.80
2020,01,14,18,53,4.80
2020,01,14,18,54,3.20
2020,01,14,18,55,4.80
2020,01,14,18,56,4.80
2020,01,14,18,57,4.80
2020,01,14,18,58,4.80
2020,01,14,18,59,6.40
2020,01,14,19,00,4.80
2020,01,14,19,02,3.20
2020,01,14,19,03,4.80
2020,01,14,19,04,6.40
2020,01,14,19,05,4.80
2020,01,14,19,06,4.80
2020,01,14,19,07,6.40
2020,01,14,19,08,6.40
2020,01,14,19,09,6.40
2020,01,14,19,10,6.40
2020,01,14,19,11,1.60
2020,01,14,19,18,4.80
2020,01,14,19,19,6.40
2020,01,14,19,21,6.40
2020,01,14,19,22,6.40
2020,01,14,19,23,6.40
2020,01,14,19,24,1.60
2020,01,14,19,28,6.40
2020,01,14,19,29,1.60
2020,01,14,19,31,4.80
2020,01,14,19,32,3.20
2020,01,14,19,33,6.40
2020,01,14,19,34,9.60
2020,01,14,19,35,8.10
2020,01,14,19,36,6.40
2020,01,14,19,37,6.40
2020,01,14,19,38,6.40
2020,01,14,19,39,6.40
2020,01,14,19,40,8.10
2020,01,14,19,41,6.40
2020,01,14,19,42,9.60
2020,01,14,19,43,11.30
2020,01,14,19,44,9.60
2020,01,14,19,45,9.60
2020,01,14,19,46,9.60
2020,01,14,19,47,6.40
2020,01,14,19,48,4.80
2020,01,14,19,49,4.80
2020,01,14,19,54,8.10
2020,01,14,19,55,6.40
2020,01,14,19,56,8.10
2020,01,14,19,57,6.40
2020,01,14,19,58,3.20
2020,01,14,20,01,3.20
2020,01,14,20,02,6.40
2020,01,14,20,03,4.80
2020,01,14,20,04,6.40
2020,01,14,20,09,4.80
2020,01,14,20,10,4.80
2020,01,14,20,11,6.40
2020,01,14,20,12,6.40
2020,01,14,20,13,6.40
2020,01,14,20,14,6.40
2020,01,14,20,15,4.80
2020,01,14,20,16,9.60
2020,01,14,20,17,8.10
2020,01,14,20,18,8.10
2020,01,14,20,19,9.60
2020,01,14,20,20,11.30
2020,01,14,20,21,11.30
2020,01,14,20,22,9.60
2020,01,14,20,23,8.10
2020,01,14,20,24,8.10
2020,01,14,20,25,8.10
2020,01,14,20,28,1.60
2020,01,14,20,30,6.40
2020,01,14,20,31,8.10
2020,01,14,20,32,6.40
2020,01,14,20,33,9.60
2020,01,14,20,34,8.10
2020,01,14,20,35,8.10
2020,01,14,20,36,8.10
2020,01,14,20,37,9.60
2020,01,14,20,38,9.60
2020,01,14,20,39,6.40
2020,01,14,20,40,9.60
2020,01,14,20,41,9.60
2020,01,14,20,42,9.60
2020,01,14,20,43,9.60
2020,01,14,20,44,8.10
2020,01,14,20,45,9.60
2020,01,14,20,46,14.50
2020,01,14,20,47,9.60
2020,01,14,20,48,8.10
2020,01,14,20,49,8.10
2020,01,14,20,50,4.80
2020,01,14,20,51,3.20
2020,01,14,20,57,3.20
2020,01,14,20,58,6.40
2020,01,14,21,00,4.80
2020,01,14,21,01,8.10
2020,01,14,21,02,8.10
2020,01,14,21,03,6.40
2020,01,14,21,04,8.10
2020,01,14,21,05,6.40
2020,01,14,21,06,9.60
2020,01,14,21,07,6.40
2020,01,14,21,09,8.10
2020,01,14,21,10,9.60
2020,01,14,21,11,8.10
2020,01,14,21,12,8.10
2020,01,14,21,13,4.80
2020,01,14,21,16,4.80
2020,01,14,21,17,4.80
2020,01,14,21,18,6.40
2020,01,14,21,20,6.40
2020,01,14,21,21,6.40
2020,01,14,21,24,6.40
2020,01,14,21,25,6.40
2020,01,14,21,26,3.20
2020,01,14,21,27,6.40
2020,01,14,21,28,6.40
2020,01,14,21,29,3.20
2020,01,14,21,30,4.80
2020,01,14,21,31,4.80
2020,01,14,21,32,3.20
2020,01,14,21,33,6.40
2020,01,14,21,34,4.80
2020,01,14,21,35,4.80
2020,01,14,21,36,3.20
2020,01,14,21,38,3.20
2020,01,14,21,39,8.10
2020,01,14,21,40,4.80
2020,01,14,21,41,8.10
2020,01,14,21,42,6.40
2020,01,14,21,43,16.10
2020,01,14,21,44,14.50
2020,01,14,21,45,12.90
2020,01,14,21,46,9.60
2020,01,14,21,47,16.10
2020,01,14,21,48,11.30
2020,01,14,21,49,20.90
2020,01,14,21,50,17.70
2020,01,14,21,51,14.50
2020,01,14,21,52,9.60
2020,01,14,21,53,20.90
2020,01,14,21,54,24.20
2020,01,14,21,55,11.30
2020,01,14,21,56,14.50
2020,01,14,21,57,16.10
2020,01,14,21,58,20.90
2020,01,14,21,59,19.30
2020,01,14,22,00,11.30
2020,01,14,22,01,16.10
2020,01,14,22,02,11.30
2020,01,14,22,03,14.50
2020,01,14,22,04,16.10
2020,01,14,22,05,14.50
2020,01,14,22,06,11.30
2020,01,14,22,07,16.10
2020,01,14,22,08,9.60
2020,01,14,22,09,19.30
2020,01,14,22,10,16.10
2020,01,14,22,11,25.70
2020,01,14,22,12,19.30
2020,01,14,22,13,22.50
2020,01,14,22,14,19.30
2020,01,14,22,15,14.50
2020,01,14,22,16,11.30
2020,01,14,22,17,14.50
2020,01,14,22,18,11.30
2020,01,14,22,19,17.70
2020,01,14,22,20,20.90
2020,01,14,22,21,25.70
2020,01,14,22,22,17.70
2020,01,14,22,23,19.30
2020,01,14,22,24,20.90
2020,01,14,22,25,19.30
2020,01,14,22,26,17.70
2020,01,14,22,27,16.10
2020,01,14,22,28,14.50
2020,01,14,22,29,20.90
2020,01,14,22,30,20.90
2020,01,14,22,31,16.10
2020,01,14,22,32,22.50
2020,01,14,22,33,24.20
2020,01,14,22,34,17.70
2020,01,14,22,35,16.10
2020,01,14,22,36,11.30
2020,01,14,22,37,14.50
2020,01,14,22,38,19.30
2020,01,14,22,39,14.50
2020,01,14,22,40,12.90
2020,01,14,22,41,16.10
2020,01,14,22,42,19.30
2020,01,14,22,43,20.90
2020,01,14,22,44,20.90
2020,01,14,22,45,17.70
2020,01,14,22,46,19.30
2020,01,14,22,47,24.20
2020,01,14,22,48,20.90
2020,01,14,22,49,19.30
2020,01,14,22,50,24.20
2020,01,14,22,51,17.70
2020,01,14,22,52,19.30
2020,01,14,22,53,20.90
2020,01,14,22,54,20.90
2020,01,14,22,55,24.20
2020,01,14,22,56,22.50
2020,01,14,22,57,24.20
2020,01,14,22,58,20.90
2020,01,14,22,59,19.30
2020,01,14,23,00,19.30
2020,01,14,23,01,17.70
2020,01,14,23,02,19.30
2020,01,14,23,03,24.20
2020,01,14,23,04,20.90
2020,01,14,23,05,24.20
2020,01,14,23,06,20.90
2020,01,14,23,07,20.90
2020,01,14,23,08,17.70
2020,01,14,23,09,25.70
2020,01,14,23,10,12.90
2020,01,14,23,11,17.70
2020,01,14,23,12,16.10
2020,01,14,23,13,16.10
2020,01,14,23,14,19.30
2020,01,14,23,15,16.10
2020,01,14,23,16,8.10
2020,01,14,23,17,14.50
2020,01,14,23,18,12.90
2020,01,14,23,19,16.10
2020,01,14,23,20,16.10
2020,01,14,23,21,20.90
2020,01,14,23,22,16.10
2020,01,14,23,23,17.70
2020,01,14,23,24,14.50
2020,01,14,23,25,24.20
2020,01,14,23,26,22.50
2020,01,14,23,27,20.90
2020,01,14,23,28,22.50
2020,01,14,23,29,20.90
2020,01,14,23,30,20.90
2020,01,14,23,31,16.10
2020,01,14,23,32,24.20
2020,01,14,23,33,20.90
2020,01,14,23,34,25.70
2020,01,14,23,35,27.40
2020,01,14,23,36,29.00